Location: Zaragoza
(41.6330°N, 0.8830°W)
Time: 10:33:27
(UTC+02:00)

ISS - Pass Details

Date: 18 July 2020
Orbit: 418 x 420 km, 51.6° (Epoch: 04 August)

Event Time Altitude Azimuth Distance (km) Brightness Sun altitude
Rises 01:44:12 0° 303° (WNW) 2,373 0.6 -27.1°
Reaches altitude 10° 01:46:57 10° 327° (NNW) 1,508 -0.2 -27.2°
Maximum altitude 01:49:04 15° 6° (N) 1,217 -0.6 -27.2°
Drops below altitude 10° 01:51:11 10° 44° (NE) 1,507 -0.5 -27.2°
Enters shadow 01:55:32 -5° 76° (ENE) 2,961 0.7 -27.3°
